User: anonymous
Location: Mactaquac Provincial Park
(45.9573°N, 66.8897°W)
Time: 17:53:35
(UTC-03:00)
Language:

CENTAUR R/B - Orbit

View from above orbital plane
View from above orbital plane
View from above satellite
View from above satellite

Ground track
Ground track

The orbit data is extracted from the following two-line orbital elements,

1 26906U 01040B   14206.99675925 0.00000050  00000-0  70275-4 0    06
2 26906  63.4675 161.2573 0262000 345.1494  14.8506 13.43913058    02
Epoch (UTC): 25 July 2014 23:55:19
Eccentricity: 0.0262000
inclination: 63.4675°
perigee height: 899 km
apogee height: 1290 km
right ascension of ascending node: 161.2573°
argument of perigee: 345.1494°
revolutions per day: 13.43913058
mean anomaly at epoch: 14.8506°
orbit number at epoch: 0

The dashed part of the orbit path shows where the satellite is in the earth's shadow,  

DLR